User: anonymous   Login
Location: Unspecified
(0.0000°N, 0.0000°E)
Time: 19:26:03
(UTC+00:00)
Language:

HAWK-9B - Orbit

View from above orbital plane
View from above orbital plane
View from above satellite
View from above satellite

Ground track
Ground track

The orbit is defined by the following mean orbital elements,

1 59450U          26145.40977929 +.00000000 +00000-0 +92890-4 0 00003
2 59450  45.6195  35.8723 0003909 262.5488  97.4949 14.99057219    08
Epoch (UTC): 25 May 2026 09:50:04
Eccentricity: 0.0003909
inclination: 45.6195°
perigee height: 567 km
apogee height: 573 km
right ascension of ascending node: 35.8723°
argument of perigee: 262.5488°
revolutions per day: 14.99057219
mean anomaly at epoch: 97.4949°

The dashed part of the orbit path shows where the satellite is in the earth's shadow,  

DLR